Location: Unspecified
(0.0000°N, 0.0000°E)
Time: 03:54:45
(UTC+01:00)

Meteor PRIRODA - Visible Passes

Search period start: 06 December 2016 00:00
Search period end: 16 December 2016 00:00
Orbit: 495 x 516 km, 97.4° (Epoch: 05 December)

Date Brightness Start Highest point End Pass type
(mag) Time Alt. Az. Time Alt. Az. Time Alt. Az.
06 Dec 6.8 04:17:48 13° ESE 04:17:48 13° ESE 04:19:19 10° SE visible
06 Dec 5.6 05:52:37 15° WSW 05:52:37 15° WSW 05:53:43 10° WSW visible
07 Dec 4.9 05:34:40 26° WSW 05:34:40 26° WSW 05:36:47 10° SW visible
08 Dec 4.4 05:16:44 41° SSW 05:16:44 41° SSW 05:19:20 10° SSW visible
09 Dec 4.7 04:58:47 42° SSE 04:58:47 42° SSE 05:01:31 10° S visible
10 Dec 5.8 04:40:51 26° SE 04:40:51 26° SE 04:43:19 10° SSE visible
11 Dec 6.7 04:22:56 15° ESE 04:22:56 15° ESE 04:24:31 10° SE visible
11 Dec 5.8 05:57:43 11° WSW 05:57:43 11° WSW 05:58:04 10° WSW visible
12 Dec 5.3 05:39:47 20° WSW 05:39:47 20° WSW 05:41:21 10° SW visible
13 Dec 4.8 05:21:51 31° SW 05:21:51 31° SW 05:23:59 10° SSW visible
14 Dec 4.9 05:03:54 36° S 05:03:54 36° S 05:06:15 10° S visible
15 Dec 5.7 04:45:58 27° SE 04:45:58 27° SE 04:48:09 10° SSE visible
